When you browse on this site, cookies collect data to enhance your experience and personalize the content and advertising you see.
Visit our Privacy Policy to learn more. By continuing to use the site, you agree to this use of cookies and data.
  • In Austria
  • List of Countries
  • For 7 days
  • Water Temperature
  • Weather Map
  • News
  • Weather Widgets
  • user-avatar
    Login

    Hourly Weather Setubal

    Today, 4 April, Saturday

    Time Temperature Precipitation Wind Pressure Humidity
    00:00 +12°C° 0 mm 2 mps 753 mmHg 73%
    01:00 +12°C° 0 mm 2 mps 753 mmHg 75%
    02:00 +12°C° 0 mm 2 mps 752 mmHg 77%
    03:00 +11°C° 0 mm 3 mps 752 mmHg 77%
    04:00 +11°C° 0 mm 3 mps 752 mmHg 77%
    05:00 +11°C° 0 mm 3 mps 752 mmHg 78%
    06:00 +12°C° 0 mm 4 mps 752 mmHg 74%
    07:00 +13°C° 0 mm 5 mps 752 mmHg 71%
    08:00 +13°C° 0 mm 6 mps 752 mmHg 67%
    09:00 +15°C° 0 mm 6 mps 752 mmHg 65%
    10:00 +16°C° 0 mm 6 mps 752 mmHg 64%
    11:00 +17°C° 0 mm 6 mps 752 mmHg 62%
    12:00 +17°C° 0.1 mm 6 mps 752 mmHg 65%
    13:00 +16°C° 0.1 mm 6 mps 752 mmHg 68%
    14:00 +16°C° 0.1 mm 6 mps 752 mmHg 72%
    15:00 +16°C° 0 mm 6 mps 752 mmHg 72%
    16:00 +16°C° 0 mm 6 mps 752 mmHg 72%
    17:00 +16°C° 0 mm 6 mps 752 mmHg 73%
    18:00 +16°C° 0 mm 6 mps 752 mmHg 74%
    19:00 +16°C° 0 mm 6 mps 753 mmHg 75%
    20:00 +15°C° 0 mm 7 mps 753 mmHg 76%
    21:00 +15°C° 0 mm 7 mps 753 mmHg 78%
    22:00 +15°C° 0 mm 7 mps 753 mmHg 80%
    23:00 +15°C° 0 mm 7 mps 753 mmHg 82%

    Tomorrow, 5 April, Sunday

    Time Temperature Precipitation Wind Pressure Humidity
    00:00 +14°C° 0.2 mm 7 mps 753 mmHg 83%
    01:00 +14°C° 0.2 mm 7 mps 752 mmHg 85%
    02:00 +14°C° 0.2 mm 7 mps 752 mmHg 86%
    03:00 +14°C° 0.1 mm 7 mps 752 mmHg 88%
    04:00 +14°C° 0.1 mm 7 mps 753 mmHg 90%
    05:00 +14°C° 0.1 mm 7 mps 753 mmHg 91%
    06:00 +15°C° 0.1 mm 7 mps 753 mmHg 88%
    07:00 +16°C° 0.1 mm 7 mps 753 mmHg 86%
    08:00 +17°C° 0.1 mm 7 mps 754 mmHg 83%
    09:00 +17°C° 0.9 mm 6 mps 754 mmHg 84%
    10:00 +17°C° 0.9 mm 6 mps 754 mmHg 84%
    11:00 +17°C° 0.9 mm 6 mps 753 mmHg 85%
    12:00 +16°C° 1.1 mm 6 mps 753 mmHg 88%
    13:00 +16°C° 1.1 mm 5 mps 753 mmHg 90%
    14:00 +16°C° 1.1 mm 5 mps 753 mmHg 93%
    15:00 +16°C° 0.2 mm 6 mps 753 mmHg 92%
    16:00 +16°C° 0.2 mm 6 mps 753 mmHg 92%
    17:00 +17°C° 0.2 mm 6 mps 754 mmHg 91%
    18:00 +16°C° 0 mm 5 mps 754 mmHg 93%
    19:00 +15°C° 0 mm 4 mps 755 mmHg 94%
    20:00 +16°C° 0 mm 3 mps 756 mmHg 96%
    21:00 +14°C° 0 mm 3 mps 756 mmHg 96%
    22:00 +14°C° 0 mm 2 mps 756 mmHg 96%
    23:00 +14°C° 0 mm 2 mps 756 mmHg 96%

    Day after tomorrow, 6 April, Monday

    Time Temperature Precipitation Wind Pressure Humidity
    00:00 +13°C° 0 mm 2 mps 757 mmHg 96%
    01:00 +13°C° 0 mm 2 mps 757 mmHg 96%
    02:00 +13°C° 0 mm 1 mps 757 mmHg 97%
    03:00 +13°C° 0 mm 1 mps 757 mmHg 97%
    04:00 +12°C° 0 mm 1 mps 758 mmHg 97%
    05:00 +11°C° 0 mm 0 mps 758 mmHg 96%
    06:00 +13°C° 0 mm 0 mps 758 mmHg 91%
    07:00 +15°C° 0 mm 0 mps 759 mmHg 85%
    08:00 +16°C° 0 mm 0 mps 759 mmHg 79%
    09:00 +20°C° 0 mm 1 mps 760 mmHg 73%
    10:00 +21°C° 0 mm 1 mps 760 mmHg 66%
    11:00 +22°C° 0 mm 1 mps 760 mmHg 60%
    12:00 +21°C° 0 mm 2 mps 760 mmHg 60%
    13:00 +21°C° 0 mm 2 mps 760 mmHg 60%
    14:00 +21°C° 0 mm 3 mps 760 mmHg 60%
    15:00 +20°C° 0 mm 3 mps 760 mmHg 63%
    16:00 +19°C° 0 mm 2 mps 760 mmHg 67%
    17:00 +19°C° 0 mm 2 mps 760 mmHg 70%
    18:00 +17°C° 0 mm 2 mps 760 mmHg 75%
    19:00 +16°C° 0 mm 2 mps 761 mmHg 80%
    20:00 +14°C° 0 mm 1 mps 762 mmHg 85%
    21:00 +14°C° 0 mm 1 mps 762 mmHg 84%
    22:00 +14°C° 0 mm 1 mps 762 mmHg 84%
    23:00 +12°C° 0 mm 0 mps 762 mmHg 84%

    7 April, Tuesday

    Time Temperature Precipitation Wind Pressure Humidity
    00:00 +13°C° 0 mm 1 mps 761 mmHg 83%
    01:00 +13°C° 0 mm 1 mps 761 mmHg 82%
    02:00 +13°C° 0 mm 1 mps 761 mmHg 81%
    03:00 +13°C° 0 mm 1 mps 761 mmHg 81%
    04:00 +13°C° 0 mm 1 mps 761 mmHg 81%
    05:00 +13°C° 0 mm 1 mps 761 mmHg 81%
    06:00 +14°C° 0 mm 2 mps 761 mmHg 75%
    07:00 +16°C° 0 mm 2 mps 761 mmHg 70%
    08:00 +18°C° 0 mm 2 mps 761 mmHg 65%
    09:00 +19°C° 0 mm 2 mps 761 mmHg 60%
    10:00 +22°C° 0 mm 1 mps 761 mmHg 56%
    11:00 +24°C° 0 mm 1 mps 761 mmHg 51%
    12:00 +24°C° 0 mm 1 mps 761 mmHg 49%
    13:00 +25°C° 0 mm 1 mps 760 mmHg 48%
    14:00 +26°C° 0 mm 1 mps 760 mmHg 46%
    15:00 +25°C° 0 mm 1 mps 760 mmHg 51%
    16:00 +24°C° 0 mm 1 mps 760 mmHg 55%
    17:00 +23°C° 0 mm 2 mps 760 mmHg 60%
    18:00 +20°C° 0 mm 2 mps 760 mmHg 64%
    19:00 +19°C° 0 mm 2 mps 761 mmHg 67%
    20:00 +17°C° 0 mm 2 mps 761 mmHg 71%
    21:00 +17°C° 0 mm 2 mps 761 mmHg 71%
    22:00 +18°C° 0 mm 1 mps 761 mmHg 72%
    23:00 +16°C° 0 mm 1 mps 761 mmHg 73%

    8 April, Wednesday

    Time Temperature Precipitation Wind Pressure Humidity
    00:00 +16°C° 0 mm 1 mps 760 mmHg 74%
    01:00 +16°C° 0 mm 2 mps 760 mmHg 75%
    02:00 +16°C° 0 mm 2 mps 760 mmHg 77%
    03:00 +16°C° 0 mm 2 mps 759 mmHg 76%
    04:00 +16°C° 0 mm 2 mps 759 mmHg 76%
    05:00 +16°C° 0 mm 2 mps 759 mmHg 76%
    06:00 +17°C° 0 mm 2 mps 760 mmHg 73%
    07:00 +18°C° 0 mm 2 mps 760 mmHg 70%
    08:00 +20°C° 0 mm 1 mps 760 mmHg 67%
    09:00 +20°C° 0 mm 2 mps 760 mmHg 65%
    10:00 +21°C° 0 mm 2 mps 760 mmHg 62%
    11:00 +23°C° 0 mm 2 mps 760 mmHg 60%
    12:00 +21°C° 0 mm 2 mps 760 mmHg 62%
    13:00 +21°C° 0 mm 2 mps 760 mmHg 64%
    14:00 +21°C° 0 mm 2 mps 759 mmHg 66%
    15:00 +20°C° 0 mm 2 mps 759 mmHg 68%
    16:00 +20°C° 0 mm 2 mps 759 mmHg 70%
    17:00 +19°C° 0 mm 2 mps 759 mmHg 73%
    18:00 +19°C° 0 mm 2 mps 759 mmHg 76%
    19:00 +18°C° 0 mm 2 mps 759 mmHg 80%
    20:00 +17°C° 0 mm 2 mps 760 mmHg 83%
    21:00 +16°C° 0 mm 1 mps 760 mmHg 85%
    22:00 +16°C° 0 mm 1 mps 760 mmHg 86%
    23:00 +15°C° 0 mm 1 mps 760 mmHg 87%

    9 April, Thursday

    Time Temperature Precipitation Wind Pressure Humidity
    00:00 +16°C° 0 mm 1 mps 759 mmHg 86%
    01:00 +16°C° 0 mm 1 mps 759 mmHg 85%
    02:00 +16°C° 0 mm 1 mps 758 mmHg 84%
    03:00 +16°C° 0 mm 1 mps 759 mmHg 84%
    04:00 +16°C° 0 mm 1 mps 759 mmHg 83%
    05:00 +16°C° 0 mm 1 mps 759 mmHg 83%
    06:00 +18°C° 0 mm 1 mps 759 mmHg 80%
    07:00 +18°C° 0 mm 1 mps 759 mmHg 77%
    08:00 +17°C° 0 mm 0 mps 759 mmHg 75%
    09:00 +20°C° 0.1 mm 1 mps 759 mmHg 73%
    10:00 +20°C° 0.1 mm 1 mps 759 mmHg 72%
    11:00 +21°C° 0.1 mm 1 mps 760 mmHg 71%
    12:00 +21°C° 0 mm 1 mps 759 mmHg 70%
    13:00 +20°C° 0 mm 2 mps 759 mmHg 69%
    14:00 +20°C° 0 mm 2 mps 759 mmHg 68%
    15:00 +20°C° 0 mm 2 mps 759 mmHg 69%
    16:00 +19°C° 0 mm 2 mps 759 mmHg 70%
    17:00 +19°C° 0 mm 2 mps 759 mmHg 71%
    18:00 +18°C° 0 mm 2 mps 759 mmHg 74%
    19:00 +18°C° 0 mm 2 mps 760 mmHg 76%
    20:00 +18°C° 0 mm 1 mps 760 mmHg 78%
    21:00 +16°C° 0 mm 1 mps 760 mmHg 82%
    22:00 +16°C° 0 mm 1 mps 760 mmHg 87%
    23:00 +15°C° 0 mm 1 mps 760 mmHg 91%
    Show more